Content
SEND FEEDBACK

Daily
Averages
Monthly
Summary
United States of America

ROME, GEORGIA


Home > North America > United States > Georgia
Elevation: 644 feet     Latitude: 34 20N     Longitude: 085 09W

WEATHER
 
SELECT A DAY
Number of Records: 210,923;   Date Range: 1/1/95 - 9/16/14
 
SHARE

PRINT THIS DATA

[ ← Previous Day ]
WEATHER ALMANAC - MARCH 3, 2014
[ Next Day → ]
[ °C ]   °F
Weather ElementAverageHighLow
Temperature47 °F62.6 °F (3:28 am)30.9 °F (9:53 pm)
Dewpoint43.7 °F54 °F (4:53 am)25 °F (8:53 pm)
Humidity88.9 %100 % (6:05 am)58 % (1:53 am)
Barometer29.93 in30.20 in (10:53 pm)29.78 in (3:53 am)
Wind Speed8.5 mph16.1 mph (1:18 pm)
Wind Gust26.5 mph (5:06 am)
Weather ElementAverage
Visibility5.8 mi
Wind DirectionWSW (233.2 °)

Weather ElementTotal
Precipitation2.56 in
Heating Degree Days18.3 (Base 65)
Averaged from 47 records on March 3, 2014
WEATHER CONDITIONS BREAKOUT
WIND DIRECTION BREAKOUT
WEATHER BY HOUR - MARCH 3, 2014
[ °C ]   °F
Local TimeTemperatureDewpointHumidityBarometerVisibilityWind DirectionWind SpeedGust SpeedPrecipitationEventsConditions
1:53 AM61.0 °F46.0 °F58 %29.83 in10.0 miSouth (180°)8.1 mphMostly Cloudy
2:53 AM62.1 °F48.9 °F62 %29.80 in10.0 miSouth (190°)8.1 mphOvercast
3:28 AM62.6 °F50.0 °F63 %29.81 in10.0 miSSW (200°)6.9 mphMostly Cloudy
3:53 AM62.1 °F51.1 °F67 %29.78 in10.0 miSouth (190°)6.9 mphOvercast
4:53 AM57.9 °F54.0 °F87 %29.78 in7.0 miCalm0.01 inOvercast
5:06 AM53.6 °F51.8 °F94 %29.83 in1.8 miNNW (330°)10.4 mph26.5 mph0.08 inOvercast
5:24 AM53.6 °F51.8 °F94 %29.84 in1.8 miCalm0.28 inOvercast
5:31 AM53.6 °F51.8 °F94 %29.83 in2.5 miNNE (30°)3.5 mph0.32 inOvercast
5:40 AM53.6 °F51.8 °F94 %29.84 in3.0 miENE (70°)3.5 mph0.35 inOvercast
5:45 AM53.6 °F51.8 °F94 %29.84 in2.5 miEast (80°)3.5 mph0.38 inOvercast
5:53 AM53.1 °F52.0 °F96 %29.82 in2.5 miESE (120°)5.8 mph0.43 inOvercast
5:57 AM53.6 °F51.8 °F94 %29.84 in3.0 miSE (130°)3.5 mph0.02 inOvercast
6:05 AM53.6 °F53.6 °F100 %29.83 in2.5 miCalm0.05 inOvercast
6:15 AM53.6 °F53.6 °F100 %29.83 in3.0 miSSE (160°)5.8 mph0.10 inOvercast
6:23 AM53.6 °F53.6 °F100 %29.81 in4.0 miEast (100°)5.8 mph0.12 inOvercast
6:53 AM54.0 °F53.1 °F97 %29.80 in10.0 miCalm0.13 inOvercast
7:53 AM54.0 °F54.0 °F100 %29.82 in2.5 miCalm0.02 inOvercast
8:07 AM53.6 °F53.6 °F100 %29.84 in1.0 miCalm0.03 inOvercast
8:17 AM53.6 °F53.6 °F100 %29.84 in1.2 miNW (320°)3.5 mph0.04 inOvercast
8:40 AM53.6 °F53.6 °F100 %29.85 in1.0 miNW (320°)4.6 mph0.05 inOvercast
8:53 AM54.0 °F53.1 °F97 %29.84 in1.5 miNNW (340°)5.8 mph0.06 inOvercast
9:03 AM51.8 °F51.8 °F100 %29.86 in2.0 miNNW (330°)9.2 mph0.01 inOvercast
9:18 AM50.0 °F50.0 °F100 %29.87 in1.8 miNW (320°)11.5 mph0.01 inOvercast
9:43 AM48.2 °F46.4 °F93 %29.89 in2.0 miNNW (330°)12.7 mph0.03 inOvercast
9:53 AM46.9 °F46.0 °F97 %29.89 in2.0 miNNW (330°)12.7 mph0.04 inOvercast
10:12 AM46.4 °F44.6 °F93 %29.92 in2.5 miNNW (340°)13.8 mph20.7 mphOvercast
10:19 AM46.4 °F44.6 °F93 %29.93 in5.0 miNNW (340°)13.8 mphOvercast
10:53 AM44.1 °F42.1 °F93 %29.94 in6.0 miNorth (350°)12.7 mph21.9 mphOvercast
11:05 AM44.6 °F42.8 °F93 %29.95 in6.0 miNorth (360°)10.4 mphOvercast
11:30 AM44.6 °F42.8 °F93 %29.97 in2.5 miNNW (340°)8.1 mphOvercast
11:46 AM42.8 °F41.0 °F93 %29.99 in2.0 miNNW (330°)13.8 mph18.4 mphOvercast
11:53 AM42.1 °F41.0 °F96 %29.99 in4.0 miNNW (330°)13.8 mphOvercast
12:22 PM42.8 °F39.2 °F87 %30.00 in9.0 miNNW (330°)13.8 mph19.6 mphOvercast
12:53 PM41.0 °F37.9 °F89 %30.00 in10.0 miNorth (360°)11.5 mph20.7 mphOvercast
1:18 PM39.2 °F37.4 °F93 %30.02 in9.0 miNNW (330°)16.1 mph21.9 mphOvercast
1:53 PM37.9 °F35.1 °F89 %30.01 in10.0 miNNW (330°)11.5 mphOvercast
2:50 PM37.4 °F33.8 °F87 %30.04 in10.0 miNorth (350°)13.8 mph19.6 mphOvercast
2:53 PM37.9 °F33.1 °F83 %30.03 in10.0 miNorth (350°)15.0 mph21.9 mphOvercast
3:53 PM37.9 °F33.1 °F83 %30.05 in10.0 miNNW (340°)11.5 mphOvercast
4:53 PM37.0 °F30.9 °F79 %30.09 in10.0 miNNW (340°)15.0 mph21.9 mphOvercast
5:53 PM36.0 °F30.0 °F79 %30.12 in10.0 miNNW (340°)10.4 mphOvercast
6:53 PM34.0 °F28.0 °F79 %30.15 in10.0 miNNW (340°)8.1 mph16.1 mphOvercast
7:53 PM33.1 °F26.1 °F75 %30.15 in10.0 miNorth (360°)10.4 mphOvercast
8:53 PM32.0 °F25.0 °F75 %30.15 in10.0 miNorth (350°)13.8 mph20.7 mphOvercast
9:53 PM30.9 °F26.1 °F82 %30.19 in10.0 miNorth (10°)10.4 mphOvercast
10:53 PM30.9 °F25.0 °F79 %30.20 in10.0 miNorth (350°)10.4 mphOvercast
11:53 PM30.9 °F26.1 °F82 %30.19 in10.0 miNNE (20°)9.2 mphOvercast
Hourly data recorded from KRMG, located miles away from Rome, Georgia







STORIES FROM OUR PARTNERS